owner,sensor,date,latitude,longitude,vertical_datum,wind_speed,wind_to_direction,wind_speed_of_gust,qcFlag 
DISL,ioos:station:DISL:MHPA:1,2014-06-01T00:00:00Z,30.6671,-87.9365,8.5,1.66,201.1,-9999.0,'1111122,1111122,1111122' 
DISL,ioos:station:DISL:MHPA:1,2014-06-01T00:30:00Z,30.6671,-87.9365,8.5,1.03,64.04,-9999.0,'1111122,1111122,1111122' 
DISL,ioos:station:DISL:MHPA:1,2014-06-01T01:00:00Z,30.6671,-87.9365,8.5,1.35,67.59,-9999.0,'1111122,1111122,1111122' 
DISL,ioos:station:DISL:MHPA:1,2014-06-01T01:30:00Z,30.6671,-87.9365,8.5,1.32,48.74,-9999.0,'1111122,1111122,1111122' 
DISL,ioos:station:DISL:MHPA:1,2014-06-01T02:00:00Z,30.6671,-87.9365,8.5,1.35,25.24,-9999.0,'1111122,1111122,1111122' 
DISL,ioos:station:DISL:MHPA:1,2014-06-01T02:30:00Z,30.6671,-87.9365,8.5,1.1,35.09,-9999.0,'1111122,1111122,1111122' 
DISL,ioos:station:DISL:MHPA:1,2014-06-01T03:00:00Z,30.6671,-87.9365,8.5,1.2,22.89,-9999.0,'1111122,1111122,1111122' 
DISL,ioos:station:DISL:MHPA:1,2014-06-01T03:30:00Z,30.6671,-87.9365,8.5,1.15,28.19,-9999.0,'1111122,1111122,1111122' 
DISL,ioos:station:DISL:MHPA:1,2014-06-01T04:00:00Z,30.6671,-87.9365,8.5,1.13,305.9,-9999.0,'1111122,1111122,1111122' 
DISL,ioos:station:DISL:MHPA:1,2014-06-01T04:30:00Z,30.6671,-87.9365,8.5,1.77,328.8,-9999.0,'1111122,1111122,1111122' 
DISL,ioos:station:DISL:MHPA:1,2014-06-01T05:00:00Z,30.6671,-87.9365,8.5,1.41,345.2,-9999.0,'1111122,1111122,1111122' 
DISL,ioos:station:DISL:MHPA:1,2014-06-01T05:30:00Z,30.6671,-87.9365,8.5,1.57,335.9,-9999.0,'1111122,1111122,1111122' 
DISL,ioos:station:DISL:MHPA:1,2014-06-01T06:00:00Z,30.6671,-87.9365,8.5,1.21,332.7,-9999.0,'1111122,1111122,1111122' 
DISL,ioos:station:DISL:MHPA:1,2014-06-01T06:30:00Z,30.6671,-87.9365,8.5,1.3,68.4,-9999.0,'1111122,1111122,1111122' 
DISL,ioos:station:DISL:MHPA:1,2014-06-01T07:00:00Z,30.6671,-87.9365,8.5,1.03,69.07,-9999.0,'1111122,1111122,1111122' 
DISL,ioos:station:DISL:MHPA:1,2014-06-01T07:30:00Z,30.6671,-87.9365,8.5,1.76,65.37,-9999.0,'1111122,1111122,1111122' 
DISL,ioos:station:DISL:MHPA:1,2014-06-01T08:00:00Z,30.6671,-87.9365,8.5,0.86,359.5,-9999.0,'1111122,1111122,1111122' 
DISL,ioos:station:DISL:MHPA:1,2014-06-01T08:30:00Z,30.6671,-87.9365,8.5,1.0,32.79,-9999.0,'1111122,1111122,1111122' 
DISL,ioos:station:DISL:MHPA:1,2014-06-01T09:00:00Z,30.6671,-87.9365,8.5,1.18,111.6,-9999.0,'1111122,1111122,1111122' 
DISL,ioos:station:DISL:MHPA:1,2014-06-01T09:30:00Z,30.6671,-87.9365,8.5,1.8,69.45,-9999.0,'1111122,1111122,1111122' 
DISL,ioos:station:DISL:MHPA:1,2014-06-01T10:00:00Z,30.6671,-87.9365,8.5,1.58,76.37,-9999.0,'1111122,1111122,1111122' 
DISL,ioos:station:DISL:MHPA:1,2014-06-01T10:30:00Z,30.6671,-87.9365,8.5,1.87,103.3,-9999.0,'1111122,1111122,1111122' 
DISL,ioos:station:DISL:MHPA:1,2014-06-01T11:00:00Z,30.6671,-87.9365,8.5,2.09,76.61,-9999.0,'1111122,1111122,1111122' 
DISL,ioos:station:DISL:MHPA:1,2014-06-01T11:30:00Z,30.6671,-87.9365,8.5,3.46,75.19,-9999.0,'1111122,1111122,1111122' 
DISL,ioos:station:DISL:MHPA:1,2014-06-01T12:00:00Z,30.6671,-87.9365,8.5,3.04,75.64,-9999.0,'1111122,1111122,1111122' 
DISL,ioos:station:DISL:MHPA:1,2014-06-01T12:30:00Z,30.6671,-87.9365,8.5,3.53,91.1,-9999.0,'1111122,1111122,1111122' 
DISL,ioos:station:DISL:MHPA:1,2014-06-01T13:00:00Z,30.6671,-87.9365,8.5,3.51,77.02,-9999.0,'1111122,1111122,1111122' 
DISL,ioos:station:DISL:MHPA:1,2014-06-01T13:30:00Z,30.6671,-87.9365,8.5,3.47,90.7,-9999.0,'1111122,1111122,1111122' 
DISL,ioos:station:DISL:MHPA:1,2014-06-01T14:00:00Z,30.6671,-87.9365,8.5,3.29,85.0,-9999.0,'1111122,1111122,1111122' 
DISL,ioos:station:DISL:MHPA:1,2014-06-01T14:30:00Z,30.6671,-87.9365,8.5,3.47,97.8,-9999.0,'1111122,1111122,1111122' 
DISL,ioos:station:DISL:MHPA:1,2014-06-01T15:00:00Z,30.6671,-87.9365,8.5,3.91,112.1,-9999.0,'1111122,1111122,1111122' 
DISL,ioos:station:DISL:MHPA:1,2014-06-01T15:30:00Z,30.6671,-87.9365,8.5,4.72,119.9,-9999.0,'1111122,1111122,1111122' 
DISL,ioos:station:DISL:MHPA:1,2014-06-01T16:00:00Z,30.6671,-87.9365,8.5,3.97,118.6,-9999.0,'1111122,1111122,1111122' 
DISL,ioos:station:DISL:MHPA:1,2014-06-01T16:30:00Z,30.6671,-87.9365,8.5,3.8,123.6,-9999.0,'1111122,1111122,1111122' 
DISL,ioos:station:DISL:MHPA:1,2014-06-01T17:00:00Z,30.6671,-87.9365,8.5,4.32,112.2,-9999.0,'1111122,1111122,1111122' 
DISL,ioos:station:DISL:MHPA:1,2014-06-01T17:30:00Z,30.6671,-87.9365,8.5,4.02,135.9,-9999.0,'1111122,1111122,1111122' 
DISL,ioos:station:DISL:MHPA:1,2014-06-01T18:00:00Z,30.6671,-87.9365,8.5,3.32,124.9,-9999.0,'1111122,1111122,1111122' 
DISL,ioos:station:DISL:MHPA:1,2014-06-01T18:30:00Z,30.6671,-87.9365,8.5,3.55,116.7,-9999.0,'1111122,1111122,1111122' 
DISL,ioos:station:DISL:MHPA:1,2014-06-01T19:00:00Z,30.6671,-87.9365,8.5,4.33,119.6,-9999.0,'1111122,1111122,1111122' 
DISL,ioos:station:DISL:MHPA:1,2014-06-01T19:30:00Z,30.6671,-87.9365,8.5,4.44,133.7,-9999.0,'1111122,1111122,1111122' 
DISL,ioos:station:DISL:MHPA:1,2014-06-01T20:00:00Z,30.6671,-87.9365,8.5,5.81,123.9,-9999.0,'1111122,1111122,1111122' 
DISL,ioos:station:DISL:MHPA:1,2014-06-01T20:30:00Z,30.6671,-87.9365,8.5,5.0,136.5,-9999.0,'1111122,1111122,1111122' 
DISL,ioos:station:DISL:MHPA:1,2014-06-01T21:00:00Z,30.6671,-87.9365,8.5,5.25,141.6,-9999.0,'1111122,1111122,1111122' 
DISL,ioos:station:DISL:MHPA:1,2014-06-01T21:30:00Z,30.6671,-87.9365,8.5,4.26,131.9,-9999.0,'1111122,1111122,1111122' 
DISL,ioos:station:DISL:MHPA:1,2014-06-01T22:00:00Z,30.6671,-87.9365,8.5,4.71,148.6,-9999.0,'1111122,1111122,1111122' 
DISL,ioos:station:DISL:MHPA:1,2014-06-01T22:30:00Z,30.6671,-87.9365,8.5,4.79,155.4,-9999.0,'1111122,1111122,1111122' 
DISL,ioos:station:DISL:MHPA:1,2014-06-01T23:00:00Z,30.6671,-87.9365,8.5,5.01,125.7,-9999.0,'1111122,1111122,1111122' 
DISL,ioos:station:DISL:MHPA:1,2014-06-01T23:30:00Z,30.6671,-87.9365,8.5,4.54,121.6,-9999.0,'1111122,1111122,1111122' 
DISL,ioos:station:DISL:MHPA:1,2014-06-02T00:00:00Z,30.6671,-87.9365,8.5,3.67,107.5,-9999.0,'1111122,1111122,1111122' 
DISL,ioos:station:DISL:MHPA:1,2014-06-02T00:30:00Z,30.6671,-87.9365,8.5,3.17,129.1,-9999.0,'1111122,1111122,1111122' 
DISL,ioos:station:DISL:MHPA:1,2014-06-02T01:00:00Z,30.6671,-87.9365,8.5,3.0,133.2,-9999.0,'1111122,1111122,1111122' 
DISL,ioos:station:DISL:MHPA:1,2014-06-02T01:30:00Z,30.6671,-87.9365,8.5,2.49,138.3,-9999.0,'1111122,1111122,1111122' 
DISL,ioos:station:DISL:MHPA:1,2014-06-02T02:00:00Z,30.6671,-87.9365,8.5,0.88,57.23,-9999.0,'1111122,1111122,1111122' 
DISL,ioos:station:DISL:MHPA:1,2014-06-02T02:30:00Z,30.6671,-87.9365,8.5,0.64,79.56,-9999.0,'1111122,1111122,1111122' 
DISL,ioos:station:DISL:MHPA:1,2014-06-02T03:00:00Z,30.6671,-87.9365,8.5,0.57,87.4,-9999.0,'1111122,1111122,1111122' 
DISL,ioos:station:DISL:MHPA:1,2014-06-02T03:30:00Z,30.6671,-87.9365,8.5,0.79,87.2,-9999.0,'1111122,1111122,1111122' 
DISL,ioos:station:DISL:MHPA:1,2014-06-02T04:00:00Z,30.6671,-87.9365,8.5,1.27,97.7,-9999.0,'1111122,1111122,1111122' 
DISL,ioos:station:DISL:MHPA:1,2014-06-02T04:30:00Z,30.6671,-87.9365,8.5,1.76,97.7,-9999.0,'1111122,1111122,1111122' 
DISL,ioos:station:DISL:MHPA:1,2014-06-02T05:00:00Z,30.6671,-87.9365,8.5,1.56,81.5,-9999.0,'1111122,1111122,1111122' 
DISL,ioos:station:DISL:MHPA:1,2014-06-02T05:30:00Z,30.6671,-87.9365,8.5,2.8,93.0,-9999.0,'1111122,1111122,1111122' 
DISL,ioos:station:DISL:MHPA:1,2014-06-02T06:00:00Z,30.6671,-87.9365,8.5,2.53,86.9,-9999.0,'1111122,1111122,1111122' 
DISL,ioos:station:DISL:MHPA:1,2014-06-02T06:30:00Z,30.6671,-87.9365,8.5,2.52,75.96,-9999.0,'1111122,1111122,1111122' 
DISL,ioos:station:DISL:MHPA:1,2014-06-02T07:00:00Z,30.6671,-87.9365,8.5,2.83,80.3,-9999.0,'1111122,1111122,1111122' 
DISL,ioos:station:DISL:MHPA:1,2014-06-02T07:30:00Z,30.6671,-87.9365,8.5,2.95,75.65,-9999.0,'1111122,1111122,1111122' 
DISL,ioos:station:DISL:MHPA:1,2014-06-02T08:00:00Z,30.6671,-87.9365,8.5,2.5,75.58,-9999.0,'1111122,1111122,1111122' 
DISL,ioos:station:DISL:MHPA:1,2014-06-02T08:30:00Z,30.6671,-87.9365,8.5,2.48,68.26,-9999.0,'1111122,1111122,1111122' 
DISL,ioos:station:DISL:MHPA:1,2014-06-02T09:00:00Z,30.6671,-87.9365,8.5,2.34,65.54,-9999.0,'1111122,1111122,1111122' 
DISL,ioos:station:DISL:MHPA:1,2014-06-02T09:30:00Z,30.6671,-87.9365,8.5,2.36,77.61,-9999.0,'1111122,1111122,1111122' 
DISL,ioos:station:DISL:MHPA:1,2014-06-02T10:00:00Z,30.6671,-87.9365,8.5,2.48,59.59,-9999.0,'1111122,1111122,1111122' 
DISL,ioos:station:DISL:MHPA:1,2014-06-02T10:30:00Z,30.6671,-87.9365,8.5,3.12,82.4,-9999.0,'1111122,1111122,1111122' 
DISL,ioos:station:DISL:MHPA:1,2014-06-02T11:00:00Z,30.6671,-87.9365,8.5,3.38,76.4,-9999.0,'1111122,1111122,1111122' 
DISL,ioos:station:DISL:MHPA:1,2014-06-02T11:30:00Z,30.6671,-87.9365,8.5,2.53,61.32,-9999.0,'1111122,1111122,1111122' 
DISL,ioos:station:DISL:MHPA:1,2014-06-02T12:00:00Z,30.6671,-87.9365,8.5,2.13,69.61,-9999.0,'1111122,1111122,1111122' 
DISL,ioos:station:DISL:MHPA:1,2014-06-02T12:30:00Z,30.6671,-87.9365,8.5,2.97,73.89,-9999.0,'1111122,1111122,1111122' 
DISL,ioos:station:DISL:MHPA:1,2014-06-02T13:00:00Z,30.6671,-87.9365,8.5,3.22,66.63,-9999.0,'1111122,1111122,1111122' 
DISL,ioos:station:DISL:MHPA:1,2014-06-02T13:30:00Z,30.6671,-87.9365,8.5,3.89,87.8,-9999.0,'1111122,1111122,1111122' 
DISL,ioos:station:DISL:MHPA:1,2014-06-02T14:00:00Z,30.6671,-87.9365,8.5,2.98,75.84,-9999.0,'1111122,1111122,1111122' 
DISL,ioos:station:DISL:MHPA:1,2014-06-02T14:30:00Z,30.6671,-87.9365,8.5,2.97,89.2,-9999.0,'1111122,1111122,1111122' 
DISL,ioos:station:DISL:MHPA:1,2014-06-02T15:00:00Z,30.6671,-87.9365,8.5,3.98,107.4,-9999.0,'1111122,1111122,1111122' 
DISL,ioos:station:DISL:MHPA:1,2014-06-02T15:30:00Z,30.6671,-87.9365,8.5,3.79,86.2,-9999.0,'1111122,1111122,1111122' 
DISL,ioos:station:DISL:MHPA:1,2014-06-02T16:00:00Z,30.6671,-87.9365,8.5,2.99,94.3,-9999.0,'1111122,1111122,1111122' 
DISL,ioos:station:DISL:MHPA:1,2014-06-02T16:30:00Z,30.6671,-87.9365,8.5,3.21,92.3,-9999.0,'1111122,1111122,1111122' 
DISL,ioos:station:DISL:MHPA:1,2014-06-02T17:00:00Z,30.6671,-87.9365,8.5,3.69,100.6,-9999.0,'1111122,1111122,1111122' 
DISL,ioos:station:DISL:MHPA:1,2014-06-02T17:30:00Z,30.6671,-87.9365,8.5,3.23,101.6,-9999.0,'1111122,1111122,1111122' 
DISL,ioos:station:DISL:MHPA:1,2014-06-02T18:00:00Z,30.6671,-87.9365,8.5,3.28,111.6,-9999.0,'1111122,1111122,1111122' 
DISL,ioos:station:DISL:MHPA:1,2014-06-02T18:30:00Z,30.6671,-87.9365,8.5,2.74,94.1,-9999.0,'1111122,1111122,1111122' 
DISL,ioos:station:DISL:MHPA:1,2014-06-02T19:00:00Z,30.6671,-87.9365,8.5,2.58,120.2,-9999.0,'1111122,1111122,1111122' 
DISL,ioos:station:DISL:MHPA:1,2014-06-02T19:30:00Z,30.6671,-87.9365,8.5,2.5,114.4,-9999.0,'1111122,1111122,1111122' 
DISL,ioos:station:DISL:MHPA:1,2014-06-02T20:00:00Z,30.6671,-87.9365,8.5,2.84,122.0,-9999.0,'1111122,1111122,1111122' 
DISL,ioos:station:DISL:MHPA:1,2014-06-02T20:30:00Z,30.6671,-87.9365,8.5,3.03,115.7,-9999.0,'1111122,1111122,1111122' 
DISL,ioos:station:DISL:MHPA:1,2014-06-02T21:00:00Z,30.6671,-87.9365,8.5,2.6,63.15,-9999.0,'1111122,1111122,1111122' 
DISL,ioos:station:DISL:MHPA:1,2014-06-02T21:30:00Z,30.6671,-87.9365,8.5,2.07,63.23,-9999.0,'1111122,1111122,1111122' 
DISL,ioos:station:DISL:MHPA:1,2014-06-02T22:00:00Z,30.6671,-87.9365,8.5,5.98,128.7,-9999.0,'1111122,1111122,1111122' 
DISL,ioos:station:DISL:MHPA:1,2014-06-02T22:30:00Z,30.6671,-87.9365,8.5,4.36,118.5,-9999.0,'1111122,1111122,1111122' 
DISL,ioos:station:DISL:MHPA:1,2014-06-02T23:00:00Z,30.6671,-87.9365,8.5,4.68,135.5,-9999.0,'1111122,1111122,1111122' 
DISL,ioos:station:DISL:MHPA:1,2014-06-02T23:30:00Z,30.6671,-87.9365,8.5,5.08,130.0,-9999.0,'1111122,1111122,1111122' 
DISL,ioos:station:DISL:MHPA:1,2014-06-03T00:00:00Z,30.6671,-87.9365,8.5,2.6,114.7,-9999.0,'1111122,1111122,1111122' 
DISL,ioos:station:DISL:MHPA:1,2014-06-03T00:30:00Z,30.6671,-87.9365,8.5,1.59,78.79,-9999.0,'1111122,1111122,1111122' 
DISL,ioos:station:DISL:MHPA:1,2014-06-03T01:00:00Z,30.6671,-87.9365,8.5,1.82,52.49,-9999.0,'1111122,1111122,1111122' 
DISL,ioos:station:DISL:MHPA:1,2014-06-03T01:30:00Z,30.6671,-87.9365,8.5,2.25,49.67,-9999.0,'1111122,1111122,1111122' 
DISL,ioos:station:DISL:MHPA:1,2014-06-03T02:00:00Z,30.6671,-87.9365,8.5,1.36,41.74,-9999.0,'1111122,1111122,1111122' 
DISL,ioos:station:DISL:MHPA:1,2014-06-03T02:30:00Z,30.6671,-87.9365,8.5,1.1,73.58,-9999.0,'1111122,1111122,1111122' 
DISL,ioos:station:DISL:MHPA:1,2014-06-03T03:00:00Z,30.6671,-87.9365,8.5,2.3,68.73,-9999.0,'1111122,1111122,1111122' 
DISL,ioos:station:DISL:MHPA:1,2014-06-03T03:30:00Z,30.6671,-87.9365,8.5,1.72,66.13,-9999.0,'1111122,1111122,1111122' 
DISL,ioos:station:DISL:MHPA:1,2014-06-03T04:00:00Z,30.6671,-87.9365,8.5,1.39,54.49,-9999.0,'1111122,1111122,1111122' 
DISL,ioos:station:DISL:MHPA:1,2014-06-03T04:30:00Z,30.6671,-87.9365,8.5,1.88,113.8,-9999.0,'1111122,1111122,1111122' 
DISL,ioos:station:DISL:MHPA:1,2014-06-03T05:00:00Z,30.6671,-87.9365,8.5,0.98,66.08,-9999.0,'1111122,1111122,1111122' 
DISL,ioos:station:DISL:MHPA:1,2014-06-03T05:30:00Z,30.6671,-87.9365,8.5,0.9,82.2,-9999.0,'1111122,1111122,1111122' 
DISL,ioos:station:DISL:MHPA:1,2014-06-03T06:00:00Z,30.6671,-87.9365,8.5,1.89,75.69,-9999.0,'1111122,1111122,1111122' 
DISL,ioos:station:DISL:MHPA:1,2014-06-03T06:30:00Z,30.6671,-87.9365,8.5,1.92,60.5,-9999.0,'1111122,1111122,1111122' 
DISL,ioos:station:DISL:MHPA:1,2014-06-03T07:00:00Z,30.6671,-87.9365,8.5,1.83,65.63,-9999.0,'1111122,1111122,1111122' 
DISL,ioos:station:DISL:MHPA:1,2014-06-03T07:30:00Z,30.6671,-87.9365,8.5,1.51,55.27,-9999.0,'1111122,1111122,1111122' 
DISL,ioos:station:DISL:MHPA:1,2014-06-03T08:00:00Z,30.6671,-87.9365,8.5,1.91,70.79,-9999.0,'1111122,1111122,1111122' 
DISL,ioos:station:DISL:MHPA:1,2014-06-03T08:30:00Z,30.6671,-87.9365,8.5,1.15,113.7,-9999.0,'1111122,1111122,1111122' 
DISL,ioos:station:DISL:MHPA:1,2014-06-03T09:00:00Z,30.6671,-87.9365,8.5,1.94,148.5,-9999.0,'1111122,1111122,1111122' 
DISL,ioos:station:DISL:MHPA:1,2014-06-03T09:30:00Z,30.6671,-87.9365,8.5,0.96,66.32,-9999.0,'1111122,1111122,1111122' 
DISL,ioos:station:DISL:MHPA:1,2014-06-03T10:00:00Z,30.6671,-87.9365,8.5,0.85,24.27,-9999.0,'1111122,1111122,1111122' 
DISL,ioos:station:DISL:MHPA:1,2014-06-03T10:30:00Z,30.6671,-87.9365,8.5,1.77,66.75,-9999.0,'1111122,1111122,1111122' 
DISL,ioos:station:DISL:MHPA:1,2014-06-03T11:00:00Z,30.6671,-87.9365,8.5,0.64,89.5,-9999.0,'1111122,1111122,1111122' 
DISL,ioos:station:DISL:MHPA:1,2014-06-03T11:30:00Z,30.6671,-87.9365,8.5,0.7,53.93,-9999.0,'1111122,1111122,1111122' 
DISL,ioos:station:DISL:MHPA:1,2014-06-03T12:00:00Z,30.6671,-87.9365,8.5,0.7,74.77,-9999.0,'1111122,1111122,1111122' 
DISL,ioos:station:DISL:MHPA:1,2014-06-03T12:30:00Z,30.6671,-87.9365,8.5,1.18,21.72,-9999.0,'1111122,1111122,1111122' 
DISL,ioos:station:DISL:MHPA:1,2014-06-03T13:00:00Z,30.6671,-87.9365,8.5,1.06,72.61,-9999.0,'1111122,1111122,1111122' 
DISL,ioos:station:DISL:MHPA:1,2014-06-03T13:30:00Z,30.6671,-87.9365,8.5,1.15,72.75,-9999.0,'1111122,1111122,1111122' 
DISL,ioos:station:DISL:MHPA:1,2014-06-03T14:00:00Z,30.6671,-87.9365,8.5,1.3,90.1,-9999.0,'1111122,1111122,1111122' 
DISL,ioos:station:DISL:MHPA:1,2014-06-03T14:30:00Z,30.6671,-87.9365,8.5,2.3,99.5,-9999.0,'1111122,1111122,1111122' 
DISL,ioos:station:DISL:MHPA:1,2014-06-03T15:00:00Z,30.6671,-87.9365,8.5,2.4,107.9,-9999.0,'1111122,1111122,1111122' 
DISL,ioos:station:DISL:MHPA:1,2014-06-03T15:30:00Z,30.6671,-87.9365,8.5,2.09,111.5,-9999.0,'1111122,1111122,1111122' 
DISL,ioos:station:DISL:MHPA:1,2014-06-03T16:00:00Z,30.6671,-87.9365,8.5,2.52,134.3,-9999.0,'1111122,1111122,1111122' 
DISL,ioos:station:DISL:MHPA:1,2014-06-03T16:30:00Z,30.6671,-87.9365,8.5,3.12,126.2,-9999.0,'1111122,1111122,1111122' 
DISL,ioos:station:DISL:MHPA:1,2014-06-03T17:00:00Z,30.6671,-87.9365,8.5,3.21,119.3,-9999.0,'1111122,1111122,1111122' 
DISL,ioos:station:DISL:MHPA:1,2014-06-03T17:30:00Z,30.6671,-87.9365,8.5,2.82,117.1,-9999.0,'1111122,1111122,1111122' 
DISL,ioos:station:DISL:MHPA:1,2014-06-03T18:00:00Z,30.6671,-87.9365,8.5,2.92,125.9,-9999.0,'1111122,1111122,1111122' 
DISL,ioos:station:DISL:MHPA:1,2014-06-03T18:30:00Z,30.6671,-87.9365,8.5,1.56,113.2,-9999.0,'1111122,1111122,1111122' 
DISL,ioos:station:DISL:MHPA:1,2014-06-03T19:00:00Z,30.6671,-87.9365,8.5,2.42,124.1,-9999.0,'1111122,1111122,1111122' 
DISL,ioos:station:DISL:MHPA:1,2014-06-03T19:30:00Z,30.6671,-87.9365,8.5,2.98,139.9,-9999.0,'1111122,1111122,1111122' 
DISL,ioos:station:DISL:MHPA:1,2014-06-03T20:00:00Z,30.6671,-87.9365,8.5,3.31,159.4,-9999.0,'1111122,1111122,1111122' 
DISL,ioos:station:DISL:MHPA:1,2014-06-03T20:30:00Z,30.6671,-87.9365,8.5,3.2,151.0,-9999.0,'1111122,1111122,1111122' 
DISL,ioos:station:DISL:MHPA:1,2014-06-03T21:00:00Z,30.6671,-87.9365,8.5,3.96,152.9,-9999.0,'1111122,1111122,1111122' 
DISL,ioos:station:DISL:MHPA:1,2014-06-03T21:30:00Z,30.6671,-87.9365,8.5,4.13,150.2,-9999.0,'1111122,1111122,1111122' 
DISL,ioos:station:DISL:MHPA:1,2014-06-03T22:00:00Z,30.6671,-87.9365,8.5,4.02,144.4,-9999.0,'1111122,1111122,1111122' 
DISL,ioos:station:DISL:MHPA:1,2014-06-03T22:30:00Z,30.6671,-87.9365,8.5,4.14,151.7,-9999.0,'1111122,1111122,1111122' 
DISL,ioos:station:DISL:MHPA:1,2014-06-03T23:00:00Z,30.6671,-87.9365,8.5,3.6,151.0,-9999.0,'1111122,1111122,1111122' 
DISL,ioos:station:DISL:MHPA:1,2014-06-03T23:30:00Z,30.6671,-87.9365,8.5,3.18,148.6,-9999.0,'1111122,1111122,1111122' 
DISL,ioos:station:DISL:MHPA:1,2014-06-04T00:00:00Z,30.6671,-87.9365,8.5,3.55,160.2,-9999.0,'1111122,1111122,1111122' 
DISL,ioos:station:DISL:MHPA:1,2014-06-04T00:30:00Z,30.6671,-87.9365,8.5,2.49,147.9,-9999.0,'1111122,1111122,1111122' 
DISL,ioos:station:DISL:MHPA:1,2014-06-04T01:00:00Z,30.6671,-87.9365,8.5,2.67,151.8,-9999.0,'1111122,1111122,1111122' 
DISL,ioos:station:DISL:MHPA:1,2014-06-04T01:30:00Z,30.6671,-87.9365,8.5,2.24,133.2,-9999.0,'1111122,1111122,1111122' 
DISL,ioos:station:DISL:MHPA:1,2014-06-04T02:00:00Z,30.6671,-87.9365,8.5,2.06,131.7,-9999.0,'1111122,1111122,1111122' 
DISL,ioos:station:DISL:MHPA:1,2014-06-04T02:30:00Z,30.6671,-87.9365,8.5,2.02,134.5,-9999.0,'1111122,1111122,1111122' 
DISL,ioos:station:DISL:MHPA:1,2014-06-04T03:00:00Z,30.6671,-87.9365,8.5,0.67,90.4,-9999.0,'1111122,1111122,1111122' 
DISL,ioos:station:DISL:MHPA:1,2014-06-04T03:30:00Z,30.6671,-87.9365,8.5,1.26,113.6,-9999.0,'1111122,1111122,1111122' 
DISL,ioos:station:DISL:MHPA:1,2014-06-04T04:00:00Z,30.6671,-87.9365,8.5,1.3,110.6,-9999.0,'1111122,1111122,1111122' 
DISL,ioos:station:DISL:MHPA:1,2014-06-04T04:30:00Z,30.6671,-87.9365,8.5,1.44,113.7,-9999.0,'1111122,1111122,1111122' 
DISL,ioos:station:DISL:MHPA:1,2014-06-04T05:00:00Z,30.6671,-87.9365,8.5,1.87,107.7,-9999.0,'1111122,1111122,1111122' 
DISL,ioos:station:DISL:MHPA:1,2014-06-04T05:30:00Z,30.6671,-87.9365,8.5,0.83,90.7,-9999.0,'1111122,1111122,1111122' 
DISL,ioos:station:DISL:MHPA:1,2014-06-04T06:00:00Z,30.6671,-87.9365,8.5,1.28,73.78,-9999.0,'1111122,1111122,1111122' 
DISL,ioos:station:DISL:MHPA:1,2014-06-04T06:30:00Z,30.6671,-87.9365,8.5,1.19,50.01,-9999.0,'1111122,1111122,1111122' 
DISL,ioos:station:DISL:MHPA:1,2014-06-04T07:00:00Z,30.6671,-87.9365,8.5,1.68,61.31,-9999.0,'1111122,1111122,1111122' 
DISL,ioos:station:DISL:MHPA:1,2014-06-04T07:30:00Z,30.6671,-87.9365,8.5,1.3,86.5,-9999.0,'1111122,1111122,1111122' 
DISL,ioos:station:DISL:MHPA:1,2014-06-04T08:00:00Z,30.6671,-87.9365,8.5,1.42,76.43,-9999.0,'1111122,1111122,1111122' 
DISL,ioos:station:DISL:MHPA:1,2014-06-04T08:30:00Z,30.6671,-87.9365,8.5,1.07,94.2,-9999.0,'1111122,1111122,1111122' 
DISL,ioos:station:DISL:MHPA:1,2014-06-04T09:00:00Z,30.6671,-87.9365,8.5,0.84,89.0,-9999.0,'1111122,1111122,1111122' 
DISL,ioos:station:DISL:MHPA:1,2014-06-04T09:30:00Z,30.6671,-87.9365,8.5,1.08,66.01,-9999.0,'1111122,1111122,1111122' 
DISL,ioos:station:DISL:MHPA:1,2014-06-04T10:00:00Z,30.6671,-87.9365,8.5,0.87,64.17,-9999.0,'1111122,1111122,1111122' 
DISL,ioos:station:DISL:MHPA:1,2014-06-04T10:30:00Z,30.6671,-87.9365,8.5,0.75,61.39,-9999.0,'1111122,1111122,1111122' 
DISL,ioos:station:DISL:MHPA:1,2014-06-04T11:00:00Z,30.6671,-87.9365,8.5,0.75,63.3,-9999.0,'1111122,1111122,1111122' 
DISL,ioos:station:DISL:MHPA:1,2014-06-04T11:30:00Z,30.6671,-87.9365,8.5,1.18,60.67,-9999.0,'1111122,1111122,1111122' 
DISL,ioos:station:DISL:MHPA:1,2014-06-04T12:00:00Z,30.6671,-87.9365,8.5,1.12,89.4,-9999.0,'1111122,1111122,1111122' 
DISL,ioos:station:DISL:MHPA:1,2014-06-04T12:30:00Z,30.6671,-87.9365,8.5,1.52,96.1,-9999.0,'1111122,1111122,1111122' 
DISL,ioos:station:DISL:MHPA:1,2014-06-04T13:00:00Z,30.6671,-87.9365,8.5,1.19,110.3,-9999.0,'1111122,1111122,1111122' 
DISL,ioos:station:DISL:MHPA:1,2014-06-04T13:30:00Z,30.6671,-87.9365,8.5,2.36,123.0,-9999.0,'1111122,1111122,1111122' 
DISL,ioos:station:DISL:MHPA:1,2014-06-04T14:00:00Z,30.6671,-87.9365,8.5,3.18,129.4,-9999.0,'1111122,1111122,1111122' 
DISL,ioos:station:DISL:MHPA:1,2014-06-04T14:30:00Z,30.6671,-87.9365,8.5,2.46,169.0,-9999.0,'1111122,1111122,1111122' 
DISL,ioos:station:DISL:MHPA:1,2014-06-04T15:00:00Z,30.6671,-87.9365,8.5,2.24,201.9,-9999.0,'1111122,1111122,1111122' 
DISL,ioos:station:DISL:MHPA:1,2014-06-04T15:30:00Z,30.6671,-87.9365,8.5,2.64,223.3,-9999.0,'1111122,1111122,1111122' 
DISL,ioos:station:DISL:MHPA:1,2014-06-04T16:00:00Z,30.6671,-87.9365,8.5,2.92,213.9,-9999.0,'1111122,1111122,1111122' 
DISL,ioos:station:DISL:MHPA:1,2014-06-04T16:30:00Z,30.6671,-87.9365,8.5,2.91,215.4,-9999.0,'1111122,1111122,1111122' 
DISL,ioos:station:DISL:MHPA:1,2014-06-04T17:00:00Z,30.6671,-87.9365,8.5,2.48,224.7,-9999.0,'1111122,1111122,1111122' 
DISL,ioos:station:DISL:MHPA:1,2014-06-04T17:30:00Z,30.6671,-87.9365,8.5,2.41,229.0,-9999.0,'1111122,1111122,1111122' 
DISL,ioos:station:DISL:MHPA:1,2014-06-04T18:00:00Z,30.6671,-87.9365,8.5,2.45,207.6,-9999.0,'1111122,1111122,1111122' 
DISL,ioos:station:DISL:MHPA:1,2014-06-04T18:30:00Z,30.6671,-87.9365,8.5,3.69,197.0,-9999.0,'1111122,1111122,1111122' 
DISL,ioos:station:DISL:MHPA:1,2014-06-04T19:00:00Z,30.6671,-87.9365,8.5,5.19,190.1,-9999.0,'1111122,1111122,1111122' 
DISL,ioos:station:DISL:MHPA:1,2014-06-04T19:30:00Z,30.6671,-87.9365,8.5,5.61,199.0,-9999.0,'1111122,1111122,1111122' 
DISL,ioos:station:DISL:MHPA:1,2014-06-04T20:00:00Z,30.6671,-87.9365,8.5,6.3,203.5,-9999.0,'1111122,1111122,1111122' 
DISL,ioos:station:DISL:MHPA:1,2014-06-04T20:30:00Z,30.6671,-87.9365,8.5,6.75,205.3,-9999.0,'1111122,1111122,1111122' 
DISL,ioos:station:DISL:MHPA:1,2014-06-04T21:00:00Z,30.6671,-87.9365,8.5,6.62,202.9,-9999.0,'1111122,1111122,1111122' 
DISL,ioos:station:DISL:MHPA:1,2014-06-04T21:30:00Z,30.6671,-87.9365,8.5,6.96,190.9,-9999.0,'1111122,1111122,1111122' 
DISL,ioos:station:DISL:MHPA:1,2014-06-04T22:00:00Z,30.6671,-87.9365,8.5,7.16,195.8,-9999.0,'1111122,1111122,1111122' 
DISL,ioos:station:DISL:MHPA:1,2014-06-04T22:30:00Z,30.6671,-87.9365,8.5,7.11,194.9,-9999.0,'1111122,1111122,1111122' 
DISL,ioos:station:DISL:MHPA:1,2014-06-04T23:00:00Z,30.6671,-87.9365,8.5,7.28,192.8,-9999.0,'1111122,1111122,1111122' 
DISL,ioos:station:DISL:MHPA:1,2014-06-04T23:30:00Z,30.6671,-87.9365,8.5,7.27,186.5,-9999.0,'1111122,1111122,1111122' 
DISL,ioos:station:DISL:MHPA:1,2014-06-05T00:00:00Z,30.6671,-87.9365,8.5,6.17,182.5,-9999.0,'1111122,1111122,1111122' 
DISL,ioos:station:DISL:MHPA:1,2014-06-05T00:30:00Z,30.6671,-87.9365,8.5,5.49,180.1,-9999.0,'1111122,1111122,1111122' 
DISL,ioos:station:DISL:MHPA:1,2014-06-05T01:00:00Z,30.6671,-87.9365,8.5,4.97,186.1,-9999.0,'1111122,1111122,1111122' 
DISL,ioos:station:DISL:MHPA:1,2014-06-05T01:30:00Z,30.6671,-87.9365,8.5,5.35,181.4,-9999.0,'1111122,1111122,1111122' 
DISL,ioos:station:DISL:MHPA:1,2014-06-05T02:00:00Z,30.6671,-87.9365,8.5,4.86,187.6,-9999.0,'1111122,1111122,1111122' 
DISL,ioos:station:DISL:MHPA:1,2014-06-05T02:30:00Z,30.6671,-87.9365,8.5,4.58,186.2,-9999.0,'1111122,1111122,1111122' 
DISL,ioos:station:DISL:MHPA:1,2014-06-05T03:00:00Z,30.6671,-87.9365,8.5,5.09,182.3,-9999.0,'1111122,1111122,1111122' 
DISL,ioos:station:DISL:MHPA:1,2014-06-05T03:30:00Z,30.6671,-87.9365,8.5,5.18,181.1,-9999.0,'1111122,1111122,1111122' 
DISL,ioos:station:DISL:MHPA:1,2014-06-05T04:00:00Z,30.6671,-87.9365,8.5,4.58,186.8,-9999.0,'1111122,1111122,1111122' 
DISL,ioos:station:DISL:MHPA:1,2014-06-05T04:30:00Z,30.6671,-87.9365,8.5,4.5,187.2,-9999.0,'1111122,1111122,1111122' 